Location: Unspecified
(0.0000°N, 0.0000°E)
Time: 19:00:40
(UTC+00:00)

Explorer 7 - Pass Details

Date: 22 November 2019
Orbit: 485 x 680 km, 50.3° (Epoch: 08 December)

Event Time Altitude Azimuth Distance (km) Brightness Sun altitude
Rises 19:51:03 0° 225° (SW) 2,999 11.6 -29.1°
Reaches altitude 10° 19:53:26 10° 229° (SW) 2,098 10.6 -29.7°
Enters shadow 19:57:07 45° 262° (W) 923 8.2 -30.5°
Maximum altitude 19:58:12 55° 307° (NW) 812 - -30.7°
Drops below altitude 10° 20:02:58 10° 24° (NNE) 2,097 - -31.8°
Sets 20:05:21 0° 29° (NNE) 2,997 - -32.4°
